This demonstration page uses our WeatherBlox Daily Observations layout. Learn more.

Left ArrowRight Arrow

38.20091, -84.87328

Hourly Observations for September 24, 2016

Temp ( °F °C ) Dew Point ( °F °C ) Humidity (%) Winds ( mph kmh ) Pressure ( in mb ) Visibility ( mi km ) Precip ( " mm )
12:53 am 00:53 Clear 68 20 63 17.2 84 84 Calm 30.05 1018 10 16 0.00 0.00
1:53 am 01:53 Clear 67 19.4 63 17.2 87 87 Calm 30.05 1018 10 16 0.00 0.00
2:53 am 02:53 Clear 67 19.4 63 17.2 87 87 Calm 30.06 1018 10 16 0.00 0.00
3:53 am 03:53 Clear 67 19.4 63 17.2 87 87 Calm 30.05 1018 10 16 0.00 0.00
4:53 am 04:53 Clear 66 18.9 62 16.7 87 87 Calm 30.05 1018 10 16 0.00 0.00
5:53 am 05:53 Clear 65 18.3 62 16.7 90 90 Calm 30.06 1018 9 14 0.00 0.00
6:53 am 06:53 Clear 65 18.3 62 16.7 90 90 Calm 30.07 1018 10 16 0.00 0.00
7:53 am 07:53 Sunny 64 17.8 61 16.1 90 90 Calm 30.09 1019 10 16 0.00 0.00
8:53 am 08:53 Sunny 69 20.6 63 17.2 81 81 Calm 30.11 1020 10 16 0.00 0.00
9:53 am 09:53 Sunny 77 25 65 18.3 66 66 Calm 30.11 1020 10 16 0.00 0.00
10:53 am 10:53 Sunny 80 26.7 66 18.9 62 62 Calm 30.12 1020 10 16 0.00 0.00
11:53 am 11:53 Sunny 86 30 66 18.9 51 51 VRB 3 6 30.11 1020 10 16 0.00 0.00
12:53 pm 12:53 Sunny 87 30.6 65 18.3 48 48 VRB 3 6 30.11 1020 10 16 0.00 0.00
1:53 pm 13:53 Partly Cloudy 87 30.6 64 17.8 46 46 NNW 7 11 30.10 1019 10 16 0.00 0.00
2:53 pm 14:53 Partly Cloudy 90 32.2 63 17.2 41 41 N 7 11 30.07 1018 10 16 0.00 0.00
3:53 pm 15:53 Sunny 90 32.2 61 16.1 38 38 Calm 30.05 1018 8 13 0.00 0.00
4:53 pm 16:53 Mostly Sunny 91 32.8 63 17.2 39 39 NNE 7 11 30.05 1018 10 16 0.00 0.00
5:53 pm 17:53 Sunny 88 31.1 63 17.2 43 43 N 6 9 30.05 1018 10 16 0.00 0.00
6:53 pm 18:53 Sunny 86 30 65 18.3 49 49 N 6 9 30.05 1018 10 16 0.00 0.00
7:53 pm 19:53 Clear 82 27.8 66 18.9 58 58 NNE 5 7 30.06 1018 10 16 0.00 0.00
8:53 pm 20:53 Clear 80 26.7 66 18.9 62 62 NNE 6 9 30.06 1018 10 16 0.00 0.00
9:53 pm 21:53 Clear 78 25.6 66 18.9 67 67 NE 3 6 30.07 1018 10 16 0.00 0.00
10:53 pm 22:53 Clear 77 25 66 18.9 69 69 NNE 5 7 30.07 1018 10 16 0.00 0.00
11:53 pm 23:53 Clear 75 23.9 66 18.9 74 74 NE 6 9 30.08 1019 10 16 0.00 0.00

Powered by AerisWeather